Location: *
(35.8942°N, 23.3025°E)
Time: 23:43:54
(UTC+00:00)

Cosmos 1655 Rocket - Pass Details

Date: 21 September 2021
Orbit: 970 x 1007 km, 83.0° (Epoch: 22 October)

Event Time Altitude Azimuth Distance (km) Brightness Sun altitude
Rises 01:28:51 0° 357° (N) 3,669 7.3 -32.9°
Reaches altitude 10° 01:31:25 10° 1° (N) 2,718 6.6 -32.4°
Maximum altitude 01:37:33 61° 81° (E) 1,091 4.3 -31.3°
Enters shadow 01:40:45 29° 152° (SSE) 1,695 5.2 -30.8°
